Volver al catálogo

ATLAS 5 CENTAUR DEB

ActivoHEO
NORAD 43995·DEBRIS·🇺🇸 United States

Lanzado Sep 17, 2014 desde Cape Canaveral Space Force Station

Loading…

Próximos Pases (próximas 24 horas)

TLE

ActualizadoSource: Space-Track

Época: Sep 10, 2026, 10:45 UTC

1 43995U 14055BA  26253.44793982 -.00000117  00000-0  00000-0 0  9999
2 43995  20.5602 125.4919 4759747 201.9030 128.0343  1.88991949 54688

Sigue ATLAS 5 CENTAUR DEB en tiempo real con AllMySat

Download on the App Store